Yuma MCAS, AZ

9:28 PM MST on March 28, 2017 (GMT -0700)
Yuma Marine Corps Air Station

Weather History for KNYL - May, 2014

Change the Weather History Date:

Tuesday, May 13, 2014

  Actual Average Record
Temperature  
Mean Temperature 81 °F 81 °F  
Max Temperature 93 °F 94 °F 109 °F (1937)
Min Temperature 68 °F 67 °F 46 °F (1908)
Degree Days  
Heating Degree Days 0 0  
Month to date heating degree days 0 0  
Since 1 July heating degree days 370 686  
Cooling Degree Days 16 16  
Month to date cooling degree days 177 182  
Year to date cooling degree days 789 588  
Growing Degree Days 30 (Base 50)    
Moisture  
Dew Point 15 °F    
Average Humidity 11    
Maximum Humidity 16    
Minimum Humidity 5    
Precipitation  
Precipitation 0.00 in 0.01 in 0.01 in (1998)
Month to date precipitation 0.00 0.04  
Year to date precipitation 0.07 1.28  
Sea Level Pressure  
Sea Level Pressure 30.04 in    
Wind  
Wind Speed 10 mph (North)    
Max Wind Speed 21 mph    
Max Gust Speed 26 mph    
Visibility 10 miles    
Events      
T = Trace of Precipitation, MM = Missing Value Source: NWS Daily Summary

Daily Weather History Graph

Daily Weather History Graph

Search for Another Location

Airport or City:

Trip Planner

Search our weather history database for the weather conditions in past years. The results will help you decide how hot, cold, wet, or windy it might be!

Date:

Astronomy

May. 13, 2014 Rise Set
Actual Time 5:41 AM MST 7:28 PM MST
Civil Twilight 5:14 AM MST 7:55 PM MST
Nautical Twilight 4:41 AM MST 8:28 PM MST
Astronomical Twilight 4:07 AM MST 9:03 PM MST
Moon 6:38 PM MST (5/13) 4:55 AM MST (5/13)
Length of Visible Light 14h 41m
Length of Day
13h 47m
Waxing Gibbous, 99% of the Moon is Illuminated
May 13
Waxing Gibbous
May 14
Full
May 21
Last Quarter
May 28
New
Jun 5
First Quarter

Hourly Weather History & Observations

Time (MST) Temp. Dew Point Humidity Pressure Visibility Wind Dir Wind Speed Gust Speed Precip Events Conditions
12:57 AM 73.9 °F 17.1 °F 12% 29.96 in 10.0 mi North 4.6 mph - N/A   Clear
1:57 AM 72.0 °F 19.9 °F 14% 29.97 in 10.0 mi NE 3.5 mph - N/A   Clear
2:57 AM 73.9 °F 17.1 °F 12% 29.98 in 10.0 mi NE 10.4 mph - N/A   Clear
3:57 AM 72.0 °F 19.0 °F 13% 29.99 in 10.0 mi North 5.8 mph - N/A   Clear
4:57 AM 70.0 °F 19.0 °F 14% 30.02 in 10.0 mi NNE 5.8 mph - N/A   Clear
6:57 AM 73.9 °F 19.9 °F 13% 30.09 in 10.0 mi North 5.8 mph - N/A   Clear
7:57 AM 80.1 °F 21.9 °F 12% 30.12 in 10.0 mi North 11.5 mph - N/A   Clear
8:57 AM 84.0 °F 16.0 °F 8% 30.13 in 10.0 mi NNE 10.4 mph - N/A   Clear
9:57 AM 84.9 °F 14.0 °F 7% 30.13 in 10.0 mi NNE 13.8 mph 21.9 mph N/A   Clear
10:57 AM 86.0 °F 15.1 °F 7% 30.12 in 10.0 mi NNE 16.1 mph 24.2 mph N/A   Clear
11:57 AM 88.0 °F 14.0 °F 6% 30.11 in 10.0 mi North 12.7 mph 26.5 mph N/A   Clear
12:57 PM 90.0 °F 12.0 °F 6% 30.09 in 10.0 mi NNE 17.3 mph 23.0 mph N/A   Clear
1:57 PM 90.0 °F 10.9 °F 5% 30.08 in 10.0 mi Variable 4.6 mph - N/A   Clear
2:57 PM 91.0 °F 12.0 °F 5% 30.06 in 10.0 mi NNE 13.8 mph - N/A   Clear
3:57 PM 91.9 °F 10.0 °F 5% 30.03 in 10.0 mi NNE 13.8 mph 23.0 mph N/A   Clear
4:57 PM 91.9 °F 10.9 °F 5% 30.01 in 10.0 mi North 12.7 mph - N/A   Clear
5:57 PM 91.0 °F 12.0 °F 5% 29.99 in 10.0 mi North 16.1 mph 21.9 mph N/A   Clear
6:57 PM 88.0 °F 12.0 °F 6% 29.99 in 10.0 mi NNW 13.8 mph - N/A   Clear
7:57 PM 84.9 °F 12.0 °F 7% 30.01 in 10.0 mi NNW 9.2 mph - N/A   Clear
8:57 PM 82.9 °F 12.9 °F 7% 30.03 in 10.0 mi North 9.2 mph - N/A   Clear
9:57 PM 81.0 °F 14.0 °F 8% 30.04 in 10.0 mi North 6.9 mph - N/A   Clear
10:57 PM 80.1 °F 14.0 °F 8% 30.04 in 10.0 mi North 8.1 mph - N/A   Clear
11:57 PM 78.1 °F 17.1 °F 10% 30.04 in 10.0 mi North 8.1 mph - N/A   Clear